,,PA_Meas_PMT16A,,PR_Meas_QMR101_102,,RH_Meas_QMH101,,SR_Meas_QMS101,,TA_Meas_QMH101,,GenWind,,GenWind,
time,status,PA,status,PR,status,RH,status,SR,status,TA,status,DirAvg,status,SpdAvg,
2013-08-15, 00:00:04,VALID,917.392,VALID,0,VALID,96.3829,VALID,0,VALID,18.338,VALID,148,VALID,0,
2013-08-15, 00:01:04,VALID,917.365,VALID,0,VALID,96.3905,VALID,0,VALID,18.3185,VALID,134,VALID,0,
2013-08-15, 00:02:04,VALID,917.369,VALID,0,VALID,96.3905,VALID,0,VALID,18.3199,VALID,129,VALID,0,
2013-08-15, 00:03:04,VALID,917.351,VALID,0,VALID,96.3447,VALID,0,VALID,18.3199,VALID,119,VALID,0,
2013-08-15, 00:04:04,VALID,917.355,VALID,0,VALID,96.3066,VALID,0,VALID,18.3004,VALID,137,VALID,0,
2013-08-15, 00:05:04,VALID,917.356,VALID,0,VALID,96.2228,VALID,0,VALID,18.2796,VALID,143,VALID,0,
2013-08-15, 00:06:04,VALID,917.351,VALID,0,VALID,96.1999,VALID,0,VALID,18.2796,VALID,132,VALID,0,
2013-08-15, 00:07:04,VALID,917.336,VALID,0,VALID,96.1694,VALID,0.107441,VALID,18.2796,VALID,131,VALID,0,
2013-08-15, 00:08:04,VALID,917.33,VALID,0,VALID,96.1008,VALID,0,VALID,18.3004,VALID,120,VALID,0,
2013-08-15, 00:09:04,VALID,917.292,VALID,0,VALID,96.0627,VALID,0,VALID,18.3394,VALID,122,VALID,0,
2013-08-15, 00:10:04,VALID,917.283,VALID,0,VALID,96.0474,VALID,0,VALID,18.299,VALID,119,VALID,0,
2013-08-15, 00:11:04,VALID,917.272,VALID,0,VALID,96.0017,VALID,0,VALID,18.299,VALID,119,VALID,0,
2013-08-15, 00:12:04,VALID,917.255,VALID,0,VALID,95.9483,VALID,0,VALID,18.3004,VALID,133,VALID,0,
2013-08-15, 00:13:04,VALID,917.259,VALID,0,VALID,95.9254,VALID,0,VALID,18.2796,VALID,131,VALID,0,
2013-08-15, 00:14:04,VALID,917.26,VALID,0,VALID,95.9331,VALID,0,VALID,18.2796,VALID,139,VALID,0,
2013-08-15, 00:15:04,VALID,917.259,VALID,0,VALID,95.9483,VALID,0,VALID,18.2601,VALID,155,VALID,0,
2013-08-15, 00:16:04,VALID,917.28,VALID,0,VALID,96.0093,VALID,0.107441,VALID,18.2796,VALID,134,VALID,0,
2013-08-15, 00:17:04,VALID,917.252,VALID,0,VALID,96.0245,VALID,0,VALID,18.2809,VALID,160,VALID,0,
2013-08-15, 00:18:04,VALID,917.255,VALID,0,VALID,96.0093,VALID,0,VALID,18.2615,VALID,138,VALID,0,
2013-08-15, 00:19:04,VALID,917.229,VALID,0,VALID,96.0627,VALID,0,VALID,18.2601,VALID,141,VALID,0,
2013-08-15, 00:20:04,VALID,917.218,VALID,0,VALID,96.0779,VALID,0,VALID,18.2211,VALID,137,VALID,0,
2013-08-15, 00:21:04,VALID,917.216,VALID,0,VALID,96.116,VALID,0,VALID,18.2211,VALID,162,VALID,0,
2013-08-15, 00:22:04,VALID,917.217,VALID,0,VALID,96.1618,VALID,0,VALID,18.2211,VALID,122,VALID,0,
2013-08-15, 00:23:04,VALID,917.203,VALID,0,VALID,96.1999,VALID,0,VALID,18.2406,VALID,124,VALID,0,
2013-08-15, 00:24:04,VALID,917.174,VALID,0,VALID,96.2075,VALID,0,VALID,18.2225,VALID,130,VALID,0,
2013-08-15, 00:25:04,VALID,917.178,VALID,0,VALID,96.2304,VALID,0,VALID,18.2615,VALID,131,VALID,0,
2013-08-15, 00:26:04,VALID,917.143,VALID,0,VALID,96.2837,VALID,0,VALID,18.2615,VALID,132,VALID,0,
2013-08-15, 00:27:04,VALID,917.148,VALID,0,VALID,96.3219,VALID,0.107441,VALID,18.3004,VALID,132,VALID,0,
2013-08-15, 00:28:04,VALID,917.086,VALID,0,VALID,96.3676,VALID,0,VALID,18.338,VALID,132,VALID,0,
2013-08-15, 00:29:04,VALID,917.1,VALID,0,VALID,96.4057,VALID,0,VALID,18.3185,VALID,132,VALID,0,
2013-08-15, 00:30:04,VALID,917.056,VALID,0,VALID,96.4057,VALID,0,VALID,18.3394,VALID,115,VALID,0,
2013-08-15, 00:31:04,VALID,917.042,VALID,0,VALID,96.4133,VALID,0,VALID,18.3589,VALID,117,VALID,0,
2013-08-15, 00:32:04,VALID,917.013,VALID,0,VALID,96.3981,VALID,0.107441,VALID,18.299,VALID,103,VALID,0,
2013-08-15, 00:33:04,VALID,917.007,VALID,0,VALID,96.3676,VALID,0,VALID,18.2809,VALID,112,VALID,0,
2013-08-15, 00:34:04,VALID,916.998,VALID,0,VALID,96.3219,VALID,0,VALID,18.2211,VALID,99,VALID,0,
2013-08-15, 00:35:04,VALID,916.954,VALID,0,VALID,96.3066,VALID,0,VALID,18.2225,VALID,98,VALID,0,
2013-08-15, 00:36:04,VALID,916.962,VALID,0,VALID,96.2837,VALID,0,VALID,18.203,VALID,98,VALID,0,
2013-08-15, 00:37:04,VALID,916.931,VALID,0,VALID,96.2914,VALID,0.107441,VALID,18.1626,VALID,95,VALID,0,
2013-08-15, 00:38:04,VALID,916.966,VALID,0,VALID,96.3447,VALID,0.107441,VALID,18.1626,VALID,112,VALID,0,
2013-08-15, 00:39:04,VALID,916.939,VALID,0,VALID,96.3371,VALID,0,VALID,18.1431,VALID,128,VALID,0,
2013-08-15, 00:40:04,VALID,916.982,VALID,0,VALID,96.3142,VALID,0,VALID,18.1459,VALID,128,VALID,0,
2013-08-15, 00:41:04,VALID,916.976,VALID,0,VALID,96.3447,VALID,0,VALID,18.1445,VALID,128,VALID,0,
2013-08-15, 00:42:04,VALID,917.01,VALID,0,VALID,96.3447,VALID,0,VALID,18.164,VALID,149,VALID,0,
2013-08-15, 00:43:04,VALID,916.978,VALID,0,VALID,96.3829,VALID,0,VALID,18.1849,VALID,146,VALID,0,
2013-08-15, 00:44:04,VALID,916.939,VALID,0,VALID,96.3752,VALID,0,VALID,18.1654,VALID,144,VALID,0,
2013-08-15, 00:45:04,VALID,916.91,VALID,0,VALID,96.3524,VALID,0,VALID,18.1264,VALID,137,VALID,0,
2013-08-15, 00:46:04,VALID,916.896,VALID,0,VALID,96.3371,VALID,0,VALID,18.0874,VALID,140,VALID,0,
2013-08-15, 00:47:04,VALID,916.883,VALID,0,VALID,96.3371,VALID,0,VALID,18.0679,VALID,141,VALID,0,
2013-08-15, 00:48:04,VALID,916.847,VALID,0,VALID,96.36,VALID,0,VALID,18.0679,VALID,141,VALID,0,
2013-08-15, 00:49:04,VALID,916.854,VALID,0,VALID,96.3676,VALID,0,VALID,18.0484,VALID,141,VALID,0,
2013-08-15, 00:50:04,VALID,916.812,VALID,0,VALID,96.3905,VALID,0,VALID,18.0289,VALID,127,VALID,0,
2013-08-15, 00:51:04,VALID,916.788,VALID,0,VALID,96.3905,VALID,0,VALID,18.0289,VALID,138,VALID,0,
2013-08-15, 00:52:04,VALID,916.809,VALID,0,VALID,96.4438,VALID,0,VALID,18.008,VALID,150,VALID,0,
2013-08-15, 00:53:04,VALID,916.794,VALID,0,VALID,96.4591,VALID,0,VALID,18.0679,VALID,153,VALID,0,
2013-08-15, 00:54:04,VALID,916.755,VALID,0,VALID,96.5201,VALID,0,VALID,18.0874,VALID,153,VALID,0,
2013-08-15, 00:55:04,VALID,916.775,VALID,0,VALID,96.5429,VALID,0,VALID,18.0651,VALID,153,VALID,0,
2013-08-15, 00:56:04,VALID,916.755,VALID,0,VALID,96.5658,VALID,0.107441,VALID,18.1041,VALID,153,VALID,0,
2013-08-15, 00:57:04,VALID,916.743,VALID,0,VALID,96.5734,VALID,0.107441,VALID,18.0651,VALID,151,VALID,0,
2013-08-15, 00:58:04,VALID,916.753,VALID,0,VALID,96.5734,VALID,0,VALID,18.047,VALID,115,VALID,0,
2013-08-15, 00:59:04,VALID,916.772,VALID,0,VALID,96.5887,VALID,0,VALID,18.0262,VALID,149,VALID,0,
2013-08-15, 01:00:04,VALID,916.779,VALID,0,VALID,96.5963,VALID,0,VALID,18.0665,VALID,149,VALID,0,
2013-08-15, 01:01:04,VALID,916.777,VALID,0,VALID,96.6192,VALID,0.107441,VALID,18.0457,VALID,142,VALID,0,
2013-08-15, 01:02:04,VALID,916.792,VALID,0,VALID,96.6115,VALID,0.107441,VALID,18.047,VALID,124,VALID,0,
2013-08-15, 01:03:04,VALID,916.747,VALID,0,VALID,96.5963,VALID,0.107441,VALID,17.9872,VALID,131,VALID,0,
2013-08-15, 01:04:04,VALID,916.744,VALID,0,VALID,96.5658,VALID,0,VALID,17.9691,VALID,117,VALID,0,
2013-08-15, 01:05:04,VALID,916.734,VALID,0,VALID,96.5582,VALID,0,VALID,17.9482,VALID,98,VALID,0,
2013-08-15, 01:06:04,VALID,916.723,VALID,0,VALID,96.5734,VALID,0,VALID,18.008,VALID,114,VALID,0,
2013-08-15, 01:07:04,VALID,916.678,VALID,0,VALID,96.5963,VALID,0,VALID,18.0275,VALID,117,VALID,0,
2013-08-15, 01:08:04,VALID,916.662,VALID,0,VALID,96.6115,VALID,0,VALID,18.0457,VALID,145,VALID,0,
2013-08-15, 01:09:04,VALID,916.665,VALID,0,VALID,96.6268,VALID,0,VALID,18.0457,VALID,162,VALID,0,
2013-08-15, 01:10:04,VALID,916.655,VALID,0,VALID,96.6115,VALID,0,VALID,18.0665,VALID,146,VALID,0,
2013-08-15, 01:11:04,VALID,916.65,VALID,0,VALID,96.5887,VALID,0,VALID,18.0651,VALID,147,VALID,0,
2013-08-15, 01:12:04,VALID,916.658,VALID,0,VALID,96.5887,VALID,0,VALID,18.086,VALID,146,VALID,0,
2013-08-15, 01:13:04,VALID,916.672,VALID,0,VALID,96.5582,VALID,0.107441,VALID,18.086,VALID,144,VALID,0,
2013-08-15, 01:14:04,VALID,916.646,VALID,0,VALID,96.5429,VALID,0.107441,VALID,18.086,VALID,148,VALID,0,
2013-08-15, 01:15:04,VALID,916.629,VALID,0,VALID,96.5506,VALID,0,VALID,18.0651,VALID,120,VALID,0,
2013-08-15, 01:16:04,VALID,916.649,VALID,0,VALID,96.4972,VALID,0,VALID,18.047,VALID,139,VALID,0,
2013-08-15, 01:17:04,VALID,916.659,VALID,0,VALID,96.4896,VALID,0,VALID,18.008,VALID,120,VALID,0,
2013-08-15, 01:18:04,VALID,916.614,VALID,0,VALID,96.4743,VALID,0,VALID,17.9872,VALID,121,VALID,0,
2013-08-15, 01:19:04,VALID,916.622,VALID,0,VALID,96.4515,VALID,0,VALID,18.0067,VALID,123,VALID,0,
2013-08-15, 01:20:04,VALID,916.641,VALID,0,VALID,96.4362,VALID,0,VALID,18.0067,VALID,121,VALID,0,
2013-08-15, 01:21:04,VALID,916.629,VALID,0,VALID,96.4515,VALID,0,VALID,18.0275,VALID,127,VALID,0,
2013-08-15, 01:22:04,VALID,916.602,VALID,0,VALID,96.4515,VALID,0.107441,VALID,18.0067,VALID,118,VALID,0,
2013-08-15, 01:23:04,VALID,916.597,VALID,0,VALID,96.4133,VALID,0,VALID,18.0067,VALID,109,VALID,0,
2013-08-15, 01:24:04,VALID,916.545,VALID,0,VALID,96.3829,VALID,0.107441,VALID,17.9482,VALID,109,VALID,0,
2013-08-15, 01:25:04,VALID,916.551,VALID,0,VALID,96.3752,VALID,0.107441,VALID,17.9482,VALID,100,VALID,0,
2013-08-15, 01:26:04,VALID,916.512,VALID,0,VALID,96.3371,VALID,0,VALID,17.9677,VALID,108,VALID,0,
2013-08-15, 01:27:04,VALID,916.505,VALID,0,VALID,96.3371,VALID,0.107441,VALID,17.9886,VALID,105,VALID,0,
2013-08-15, 01:28:04,VALID,916.495,VALID,0,VALID,96.3371,VALID,0,VALID,17.9886,VALID,115,VALID,0,
2013-08-15, 01:29:04,VALID,916.495,VALID,0,VALID,96.3142,VALID,0,VALID,17.9677,VALID,112,VALID,0,
2013-08-15, 01:30:04,VALID,916.493,VALID,0,VALID,96.3142,VALID,0,VALID,17.9482,VALID,114,VALID,0,
2013-08-15, 01:31:04,VALID,916.488,VALID,0,VALID,96.3066,VALID,0,VALID,17.9482,VALID,122,VALID,0,
2013-08-15, 01:32:04,VALID,916.498,VALID,0,VALID,96.299,VALID,0,VALID,17.9691,VALID,121,VALID,0,
2013-08-15, 01:33:04,VALID,916.518,VALID,0,VALID,96.3295,VALID,0,VALID,17.9677,VALID,123,VALID,0,
2013-08-15, 01:34:04,VALID,916.496,VALID,0,VALID,96.3219,VALID,0.107441,VALID,17.9482,VALID,123,VALID,0,
2013-08-15, 01:35:04,VALID,916.488,VALID,0,VALID,96.3066,VALID,0.107441,VALID,17.9677,VALID,115,VALID,0,
2013-08-15, 01:36:04,VALID,916.485,VALID,0,VALID,96.2914,VALID,0,VALID,17.9886,VALID,108,VALID,0,
2013-08-15, 01:37:04,VALID,916.46,VALID,0,VALID,96.2761,VALID,0.107441,VALID,17.9886,VALID,125,VALID,0,
2013-08-15, 01:38:04,VALID,916.45,VALID,0,VALID,96.238,VALID,0,VALID,17.9677,VALID,120,VALID,0,
2013-08-15, 01:39:04,VALID,916.414,VALID,0,VALID,96.2304,VALID,0,VALID,18.008,VALID,131,VALID,0,
2013-08-15, 01:40:04,VALID,916.444,VALID,0,VALID,96.2075,VALID,0.107441,VALID,17.9872,VALID,120,VALID,0,
2013-08-15, 01:41:04,VALID,916.42,VALID,0,VALID,96.1846,VALID,0,VALID,18.0067,VALID,124,VALID,0,
2013-08-15, 01:42:04,VALID,916.409,VALID,0,VALID,96.1618,VALID,0.107441,VALID,18.047,VALID,121,VALID,0,
2013-08-15, 01:43:04,VALID,916.441,VALID,0,VALID,96.1084,VALID,0.107441,VALID,18.047,VALID,123,VALID,0,
2013-08-15, 01:44:04,VALID,916.445,VALID,0,VALID,96.0779,VALID,0.107441,VALID,18.0457,VALID,118,VALID,0,
2013-08-15, 01:45:04,VALID,916.45,VALID,0,VALID,96.0398,VALID,0.107441,VALID,18.047,VALID,120,VALID,0,
2013-08-15, 01:46:04,VALID,916.439,VALID,0,VALID,96.0017,VALID,0,VALID,18.047,VALID,114,VALID,0,
2013-08-15, 01:47:04,VALID,916.443,VALID,0,VALID,95.9712,VALID,0,VALID,18.0067,VALID,125,VALID,0,
2013-08-15, 01:48:05,VALID,916.417,VALID,0,VALID,95.9483,VALID,0,VALID,18.0262,VALID,125,VALID,0,
2013-08-15, 01:49:05,VALID,916.399,VALID,0,VALID,95.9254,VALID,0,VALID,18.047,VALID,129,VALID,0,
2013-08-15, 01:50:05,VALID,916.408,VALID,0,VALID,95.8645,VALID,0,VALID,18.047,VALID,130,VALID,0,
2013-08-15, 01:51:05,VALID,916.374,VALID,0,VALID,95.8416,VALID,0.107441,VALID,18.0457,VALID,137,VALID,0,
2013-08-15, 01:52:05,VALID,916.345,VALID,0,VALID,95.773,VALID,0,VALID,18.0262,VALID,131,VALID,0,
2013-08-15, 01:53:05,VALID,916.342,VALID,0,VALID,95.7196,VALID,0.107441,VALID,18.0457,VALID,125,VALID,0,
2013-08-15, 01:54:05,VALID,916.337,VALID,0,VALID,95.6434,VALID,0.107441,VALID,18.0262,VALID,129,VALID,0,
2013-08-15, 01:55:05,VALID,916.301,VALID,0,VALID,95.5824,VALID,0,VALID,18.0275,VALID,125,VALID,0,
2013-08-15, 01:56:05,VALID,916.307,VALID,0,VALID,95.5367,VALID,0.107441,VALID,18.0262,VALID,113,VALID,0,
2013-08-15, 01:57:05,VALID,916.292,VALID,0,VALID,95.4757,VALID,0.107441,VALID,18.0275,VALID,112,VALID,0,
2013-08-15, 01:58:05,VALID,916.319,VALID,0,VALID,95.4528,VALID,0,VALID,18.0067,VALID,138,VALID,0,
2013-08-15, 01:59:05,VALID,916.325,VALID,0,VALID,95.4299,VALID,0.107441,VALID,18.0067,VALID,132,VALID,0,
2013-08-15, 02:00:05,VALID,916.318,VALID,0,VALID,95.3842,VALID,0,VALID,18.0275,VALID,133,VALID,0,
2013-08-15, 02:01:05,VALID,916.289,VALID,0,VALID,95.3613,VALID,0.107441,VALID,18.0067,VALID,133,VALID,0,
2013-08-15, 02:02:05,VALID,916.281,VALID,0,VALID,95.2927,VALID,0,VALID,18.0275,VALID,130,VALID,0,
2013-08-15, 02:03:05,VALID,916.269,VALID,0,VALID,95.2393,VALID,0,VALID,18.0275,VALID,116,VALID,0,
2013-08-15, 02:04:05,VALID,916.224,VALID,0,VALID,95.2622,VALID,0,VALID,18.0067,VALID,131,VALID,0,
2013-08-15, 02:05:05,VALID,916.229,VALID,0,VALID,95.2012,VALID,0,VALID,18.047,VALID,135,VALID,0,
2013-08-15, 02:06:05,VALID,916.204,VALID,0,VALID,95.1326,VALID,0,VALID,18.0275,VALID,134,VALID,0,
2013-08-15, 02:07:05,VALID,916.203,VALID,0,VALID,95.0792,VALID,0.107441,VALID,18.0275,VALID,131,VALID,0,
2013-08-15, 02:08:05,VALID,916.17,VALID,0,VALID,95.0183,VALID,0,VALID,18.008,VALID,137,VALID,0,
2013-08-15, 02:09:05,VALID,916.205,VALID,0,VALID,95.003,VALID,0,VALID,18.008,VALID,149,VALID,0,
2013-08-15, 02:10:05,VALID,916.186,VALID,0,VALID,95.003,VALID,0,VALID,18.008,VALID,146,VALID,0,
2013-08-15, 02:11:05,VALID,916.176,VALID,0,VALID,94.9725,VALID,0,VALID,18.0275,VALID,146,VALID,0,
2013-08-15, 02:12:05,VALID,916.129,VALID,0,VALID,94.9268,VALID,0.107441,VALID,18.0067,VALID,146,VALID,0,
2013-08-15, 02:13:05,VALID,916.108,VALID,0,VALID,94.8658,VALID,0,VALID,18.0275,VALID,146,VALID,0,
2013-08-15, 02:14:05,VALID,916.087,VALID,0,VALID,94.8124,VALID,0,VALID,17.9677,VALID,146,VALID,0,
2013-08-15, 02:15:05,VALID,916.075,VALID,0,VALID,94.7591,VALID,0,VALID,17.9677,VALID,146,VALID,0,
2013-08-15, 02:16:05,VALID,916.097,VALID,0,VALID,94.7362,VALID,0.107441,VALID,17.9886,VALID,146,VALID,0,
2013-08-15, 02:17:05,VALID,916.057,VALID,0,VALID,94.6828,VALID,0.107441,VALID,17.9482,VALID,146,VALID,0,
2013-08-15, 02:18:05,VALID,916.111,VALID,0,VALID,94.7362,VALID,0.107441,VALID,17.9691,VALID,146,VALID,0,
2013-08-15, 02:19:05,VALID,916.115,VALID,0,VALID,94.881,VALID,0.107441,VALID,17.9677,VALID,146,VALID,0,
2013-08-15, 02:20:05,VALID,916.142,VALID,0,VALID,95.0106,VALID,0,VALID,18.008,VALID,146,VALID,0,
2013-08-15, 02:21:05,VALID,916.121,VALID,0,VALID,95.064,VALID,0,VALID,18.0275,VALID,146,VALID,0,
2013-08-15, 02:22:05,VALID,916.137,VALID,0,VALID,95.0792,VALID,0,VALID,18.008,VALID,146,VALID,0,
2013-08-15, 02:23:05,VALID,916.11,VALID,0,VALID,95.1174,VALID,0.107441,VALID,17.9691,VALID,146,VALID,0,
2013-08-15, 02:24:05,VALID,916.095,VALID,0,VALID,95.0488,VALID,0,VALID,17.9691,VALID,146,VALID,0,
2013-08-15, 02:25:05,VALID,916.11,VALID,0,VALID,95.1021,VALID,0,VALID,17.9301,VALID,146,VALID,0,
2013-08-15, 02:26:05,VALID,916.089,VALID,0,VALID,95.1021,VALID,0.107441,VALID,17.9106,VALID,146,VALID,0,
2013-08-15, 02:27:05,VALID,916.086,VALID,0,VALID,95.1555,VALID,0,VALID,17.8911,VALID,146,VALID,0,
2013-08-15, 02:28:05,VALID,916.07,VALID,0,VALID,95.186,VALID,0,VALID,17.8702,VALID,146,VALID,0,
2013-08-15, 02:29:05,VALID,916.063,VALID,0,VALID,95.186,VALID,0,VALID,17.8508,VALID,146,VALID,0,
2013-08-15, 02:30:05,VALID,916.108,VALID,0,VALID,94.9954,VALID,0,VALID,17.8131,VALID,146,VALID,0,
2013-08-15, 02:31:05,VALID,916.091,VALID,0,VALID,95.0106,VALID,0,VALID,17.7547,VALID,146,VALID,0,
2013-08-15, 02:32:05,VALID,916.126,VALID,0,VALID,95.1174,VALID,0,VALID,17.6948,VALID,140,VALID,0,
2013-08-15, 02:33:05,VALID,916.138,VALID,0,VALID,95.2775,VALID,0,VALID,17.6767,VALID,140,VALID,0,
2013-08-15, 02:34:05,VALID,916.106,VALID,0,VALID,95.3842,VALID,0,VALID,17.6962,VALID,105,VALID,0,
2013-08-15, 02:35:05,VALID,916.093,VALID,0,VALID,95.4299,VALID,0.107441,VALID,17.6948,VALID,105,VALID,0,
2013-08-15, 02:36:05,VALID,916.104,VALID,0,VALID,95.4147,VALID,0,VALID,17.7143,VALID,105,VALID,0,
2013-08-15, 02:37:05,VALID,916.07,VALID,0,VALID,95.3766,VALID,0,VALID,17.7547,VALID,105,VALID,0,
2013-08-15, 02:38:05,VALID,916.069,VALID,0,VALID,95.2622,VALID,0.107441,VALID,17.7352,VALID,105,VALID,0,
2013-08-15, 02:39:05,VALID,916.064,VALID,0,VALID,95.2393,VALID,0,VALID,17.7352,VALID,104,VALID,0,
2013-08-15, 02:40:05,VALID,916.053,VALID,0,VALID,95.2393,VALID,0.107441,VALID,17.7547,VALID,104,VALID,0,
2013-08-15, 02:41:05,VALID,916.101,VALID,0,VALID,95.2317,VALID,0,VALID,17.7741,VALID,114,VALID,0,
2013-08-15, 02:42:05,VALID,916.096,VALID,0,VALID,95.186,VALID,0,VALID,17.8131,VALID,116,VALID,0,
2013-08-15, 02:43:05,VALID,916.09,VALID,0,VALID,95.0411,VALID,0,VALID,17.8131,VALID,119,VALID,0,
2013-08-15, 02:44:05,VALID,916.114,VALID,0,VALID,94.8734,VALID,0,VALID,17.8131,VALID,136,VALID,0,
2013-08-15, 02:45:05,VALID,916.121,VALID,0,VALID,94.6523,VALID,0,VALID,17.7547,VALID,136,VALID,0,
2013-08-15, 02:46:05,VALID,916.115,VALID,0,VALID,94.5227,VALID,0,VALID,17.7157,VALID,136,VALID,0,
2013-08-15, 02:47:05,VALID,916.116,VALID,0,VALID,94.4313,VALID,0,VALID,17.6572,VALID,136,VALID,0,
2013-08-15, 02:48:05,VALID,916.088,VALID,0,VALID,94.4617,VALID,0,VALID,17.678,VALID,136,VALID,0,
2013-08-15, 02:49:05,VALID,916.066,VALID,0,VALID,94.4846,VALID,0,VALID,17.5974,VALID,136,VALID,0,
2013-08-15, 02:50:05,VALID,916.103,VALID,0,VALID,94.5837,VALID,0,VALID,17.5987,VALID,136,VALID,0,
2013-08-15, 02:51:05,VALID,916.097,VALID,0,VALID,94.6371,VALID,0,VALID,17.5987,VALID,136,VALID,0,
2013-08-15, 02:52:05,VALID,916.106,VALID,0,VALID,94.8429,VALID,0,VALID,17.5598,VALID,136,VALID,0,
2013-08-15, 02:53:05,VALID,916.12,VALID,0,VALID,94.942,VALID,0,VALID,17.5598,VALID,136,VALID,0,
2013-08-15, 02:54:05,VALID,916.154,VALID,0,VALID,95.1631,VALID,0,VALID,17.6196,VALID,144,VALID,0,
2013-08-15, 02:55:05,VALID,916.141,VALID,0,VALID,95.2317,VALID,0,VALID,17.5792,VALID,144,VALID,0,
2013-08-15, 02:56:05,VALID,916.127,VALID,0,VALID,95.2775,VALID,0,VALID,17.5792,VALID,136,VALID,0,
2013-08-15, 02:57:05,VALID,916.113,VALID,0,VALID,95.2927,VALID,0,VALID,17.5403,VALID,143,VALID,0,
2013-08-15, 02:58:05,VALID,916.105,VALID,0,VALID,95.3842,VALID,0,VALID,17.5806,VALID,142,VALID,0,
2013-08-15, 02:59:05,VALID,916.078,VALID,0,VALID,95.4147,VALID,0,VALID,17.5598,VALID,140,VALID,0,
2013-08-15, 03:00:05,VALID,916.067,VALID,0,VALID,95.4452,VALID,0,VALID,17.5403,VALID,138,VALID,0,
2013-08-15, 03:01:05,VALID,916.049,VALID,0,VALID,95.4833,VALID,0,VALID,17.5598,VALID,138,VALID,0,
2013-08-15, 03:02:05,VALID,916.06,VALID,0,VALID,95.5138,VALID,0,VALID,17.5403,VALID,137,VALID,0,
2013-08-15, 03:03:05,VALID,916.023,VALID,0,VALID,95.5367,VALID,0,VALID,17.5598,VALID,138,VALID,0,
2013-08-15, 03:04:05,VALID,916.034,VALID,0,VALID,95.5519,VALID,0,VALID,17.6001,VALID,139,VALID,0,
2013-08-15, 03:05:05,VALID,916.04,VALID,0,VALID,95.5595,VALID,0,VALID,17.5987,VALID,140,VALID,0,
2013-08-15, 03:06:05,VALID,916.039,VALID,0,VALID,95.5367,VALID,0,VALID,17.5987,VALID,140,VALID,0,
2013-08-15, 03:07:05,VALID,916.037,VALID,0,VALID,95.5443,VALID,0,VALID,17.5987,VALID,140,VALID,0,
2013-08-15, 03:08:05,VALID,916.032,VALID,0,VALID,95.529,VALID,0,VALID,17.6196,VALID,140,VALID,0,
2013-08-15, 03:09:05,VALID,916.021,VALID,0,VALID,95.5138,VALID,0,VALID,17.6391,VALID,140,VALID,0,
2013-08-15, 03:10:05,VALID,916.015,VALID,0,VALID,95.5138,VALID,0,VALID,17.6182,VALID,136,VALID,0,
2013-08-15, 03:11:05,VALID,916.034,VALID,0,VALID,95.4528,VALID,0,VALID,17.6182,VALID,139,VALID,0,
2013-08-15, 03:12:05,VALID,916.001,VALID,0,VALID,95.3918,VALID,0,VALID,17.6182,VALID,133,VALID,0,
2013-08-15, 03:13:05,VALID,916.018,VALID,0,VALID,95.3461,VALID,0,VALID,17.5987,VALID,133,VALID,0,
2013-08-15, 03:14:05,VALID,915.965,VALID,0,VALID,95.2851,VALID,0,VALID,17.5792,VALID,136,VALID,0,
2013-08-15, 03:15:05,VALID,915.955,VALID,0,VALID,95.2851,VALID,0,VALID,17.5792,VALID,131,VALID,0,
2013-08-15, 03:16:05,VALID,915.939,VALID,0,VALID,95.2546,VALID,0,VALID,17.5598,VALID,135,VALID,0,
2013-08-15, 03:17:05,VALID,915.971,VALID,0,VALID,95.2165,VALID,0,VALID,17.5403,VALID,136,VALID,0,
2013-08-15, 03:18:05,VALID,915.983,VALID,0,VALID,95.2622,VALID,0,VALID,17.5403,VALID,131,VALID,0,
2013-08-15, 03:19:05,VALID,915.984,VALID,0,VALID,95.2546,VALID,0,VALID,17.5611,VALID,115,VALID,0,
2013-08-15, 03:20:05,VALID,915.99,VALID,0,VALID,95.2546,VALID,0,VALID,17.5403,VALID,109,VALID,0,
2013-08-15, 03:21:05,VALID,916.014,VALID,0,VALID,95.2317,VALID,0,VALID,17.5403,VALID,115,VALID,0,
2013-08-15, 03:22:05,VALID,916.023,VALID,0,VALID,95.2088,VALID,0,VALID,17.5403,VALID,118,VALID,0,
2013-08-15, 03:23:05,VALID,916.009,VALID,0,VALID,95.0945,VALID,0,VALID,17.5208,VALID,114,VALID,0,
2013-08-15, 03:24:05,VALID,916.012,VALID,0,VALID,95.1174,VALID,0,VALID,17.5416,VALID,113,VALID,0,
2013-08-15, 03:25:05,VALID,916.05,VALID,0,VALID,95.1021,VALID,0,VALID,17.5208,VALID,121,VALID,0,
2013-08-15, 03:26:05,VALID,916.038,VALID,0,VALID,95.1402,VALID,0,VALID,17.5221,VALID,130,VALID,0,
2013-08-15, 03:27:05,VALID,916.048,VALID,0,VALID,95.186,VALID,0,VALID,17.5208,VALID,144,VALID,0,
2013-08-15, 03:28:05,VALID,916.076,VALID,0,VALID,95.1555,VALID,0,VALID,17.5194,VALID,144,VALID,0,
2013-08-15, 03:29:05,VALID,916.097,VALID,0,VALID,95.1174,VALID,0,VALID,17.5416,VALID,144,VALID,0,
2013-08-15, 03:30:05,VALID,916.072,VALID,0,VALID,95.064,VALID,0.107441,VALID,17.5208,VALID,144,VALID,0,
2013-08-15, 03:31:05,VALID,916.093,VALID,0,VALID,95.0564,VALID,0,VALID,17.5221,VALID,142,VALID,0,
2013-08-15, 03:32:05,VALID,916.082,VALID,0,VALID,95.0488,VALID,0.107441,VALID,17.5013,VALID,136,VALID,0,
2013-08-15, 03:33:05,VALID,916.08,VALID,0,VALID,95.0716,VALID,0,VALID,17.5403,VALID,136,VALID,0,
2013-08-15, 03:34:05,VALID,916.079,VALID,0,VALID,95.1097,VALID,0,VALID,17.5987,VALID,136,VALID,0,
2013-08-15, 03:35:05,VALID,916.063,VALID,0,VALID,94.9725,VALID,0,VALID,17.6377,VALID,144,VALID,0,
2013-08-15, 03:36:05,VALID,916.078,VALID,0,VALID,94.7896,VALID,0.107441,VALID,17.6364,VALID,144,VALID,0,
2013-08-15, 03:37:05,VALID,916.057,VALID,0,VALID,94.6447,VALID,0,VALID,17.6182,VALID,144,VALID,0,
2013-08-15, 03:38:05,VALID,916.021,VALID,0,VALID,94.5685,VALID,0,VALID,17.5987,VALID,144,VALID,0,
2013-08-15, 03:39:05,VALID,916.047,VALID,0,VALID,94.5913,VALID,0,VALID,17.6391,VALID,144,VALID,0,
2013-08-15, 03:40:05,VALID,916.026,VALID,0,VALID,94.5913,VALID,0,VALID,17.6377,VALID,139,VALID,0,
2013-08-15, 03:41:05,VALID,916.036,VALID,0,VALID,94.5456,VALID,0,VALID,17.6572,VALID,139,VALID,0,
2013-08-15, 03:42:05,VALID,916.022,VALID,0,VALID,94.4846,VALID,0,VALID,17.6572,VALID,141,VALID,0,
2013-08-15, 03:43:05,VALID,916.036,VALID,0,VALID,94.4236,VALID,0,VALID,17.678,VALID,141,VALID,0,
2013-08-15, 03:44:05,VALID,916.064,VALID,0,VALID,94.3474,VALID,0,VALID,17.6572,VALID,141,VALID,0,
2013-08-15, 03:45:05,VALID,916.084,VALID,0,VALID,94.3169,VALID,0,VALID,17.6767,VALID,141,VALID,0,
2013-08-15, 03:46:05,VALID,916.053,VALID,0,VALID,94.3245,VALID,0,VALID,17.6572,VALID,141,VALID,0,
2013-08-15, 03:47:05,VALID,916.107,VALID,0,VALID,94.3093,VALID,0.107441,VALID,17.6572,VALID,146,VALID,0,
2013-08-15, 03:48:05,VALID,916.11,VALID,0,VALID,94.3093,VALID,0,VALID,17.6572,VALID,146,VALID,0,
2013-08-15, 03:49:05,VALID,916.106,VALID,0,VALID,94.3398,VALID,0,VALID,17.6377,VALID,172,VALID,0,
2013-08-15, 03:50:05,VALID,916.1,VALID,0,VALID,94.3703,VALID,0,VALID,17.6767,VALID,160,VALID,0,
2013-08-15, 03:51:05,VALID,916.125,VALID,0,VALID,94.3474,VALID,0,VALID,17.6767,VALID,136,VALID,0,
2013-08-15, 03:52:05,VALID,916.132,VALID,0,VALID,94.355,VALID,0,VALID,17.6948,VALID,136,VALID,0,
2013-08-15, 03:53:05,VALID,916.133,VALID,0,VALID,94.3474,VALID,0,VALID,17.6585,VALID,136,VALID,0,
2013-08-15, 03:54:05,VALID,916.13,VALID,0,VALID,94.2712,VALID,0,VALID,17.678,VALID,136,VALID,0,
2013-08-15, 03:55:05,VALID,916.191,VALID,0,VALID,94.2407,VALID,0,VALID,17.6767,VALID,136,VALID,0,
2013-08-15, 03:56:05,VALID,916.215,VALID,0,VALID,94.2864,VALID,0,VALID,17.6962,VALID,136,VALID,0,
2013-08-15, 03:57:05,VALID,916.247,VALID,0,VALID,94.2102,VALID,0,VALID,17.7157,VALID,136,VALID,0,